Tabellarische Ansicht des 11.6.2022


Die einzelnen Werte des Tages

Uhrzeit Temperatur Luftdruck Luftfeuchte Wind Hi-Wind Taupunkt THW Index Wind Chill Heat Index Solar- strahlung Regen

00:00

17.9 C

1017.2 hpa

83 %

0.0 km/h aus 115

3.2 km/h aus SSW

15.0 C

18.3 C

17.9 C

18.3 C

0 W/m

0.00 mm

00:05

17.9 C

1017.2 hpa

83 %

0.0 km/h aus 113

3.2 km/h aus SSW

15.0 C

18.3 C

17.9 C

18.3 C

0 W/m

0.00 mm

00:10

17.9 C

1017.2 hpa

83 %

0.0 km/h aus 116

1.6 km/h aus SSW

15.0 C

18.2 C

17.9 C

18.2 C

0 W/m

0.00 mm

00:15

17.8 C

1017.3 hpa

83 %

0.0 km/h aus 117

3.2 km/h aus SSW

14.9 C

18.2 C

17.8 C

18.2 C

0 W/m

0.00 mm

00:20

17.8 C

1017.3 hpa

83 %

0.0 km/h aus 114

0.0 km/h aus ---

14.9 C

18.1 C

17.8 C

18.1 C

0 W/m

0.00 mm

00:25

17.8 C

1017.3 hpa

83 %

0.0 km/h aus 116

0.0 km/h aus ---

14.9 C

18.1 C

17.8 C

18.1 C

0 W/m

0.00 mm

00:30

17.8 C

1017.2 hpa

83 %

0.0 km/h aus 116

0.0 km/h aus ---

14.9 C

18.1 C

17.8 C

18.1 C

0 W/m

0.00 mm

00:35

17.8 C

1017.2 hpa

83 %

0.0 km/h aus 117

0.0 km/h aus ---

14.9 C

18.1 C

17.8 C

18.1 C

0 W/m

0.00 mm

00:40

17.8 C

1017.2 hpa

83 %

0.0 km/h aus 117

0.0 km/h aus ---

14.9 C

18.1 C

17.8 C

18.1 C

0 W/m

0.00 mm

00:45

17.7 C

1017.2 hpa

83 %

0.0 km/h aus 114

0.0 km/h aus ---

14.8 C

18.0 C

17.7 C

18.0 C

0 W/m

0.00 mm

00:50

17.7 C

1017.2 hpa

83 %

0.0 km/h aus 117

3.2 km/h aus SSW

14.8 C

18.0 C

17.7 C

18.0 C

0 W/m

0.00 mm

00:55

17.7 C

1017.2 hpa

83 %

1.6 km/h aus 116

6.4 km/h aus SSW

14.7 C

17.9 C

17.7 C

17.9 C

0 W/m

0.00 mm

01:00

17.7 C

1017.0 hpa

83 %

3.2 km/h aus 116

6.4 km/h aus SSW

14.7 C

17.9 C

17.7 C

17.9 C

0 W/m

0.00 mm

01:05

17.7 C

1017.0 hpa

83 %

3.2 km/h aus 116

6.4 km/h aus SSW

14.7 C

17.9 C

17.7 C

17.9 C

0 W/m

0.00 mm

01:10

17.6 C

1017.0 hpa

83 %

1.6 km/h aus 115

6.4 km/h aus SSW

14.7 C

17.9 C

17.6 C

17.9 C

0 W/m

0.00 mm

01:15

17.6 C

1016.9 hpa

83 %

0.0 km/h aus 117

4.8 km/h aus SSW

14.7 C

17.9 C

17.6 C

17.9 C

0 W/m

0.00 mm

01:20

17.6 C

1016.9 hpa

83 %

1.6 km/h aus 117

8.0 km/h aus SSW

14.6 C

17.8 C

17.6 C

17.8 C

0 W/m

0.00 mm

01:25

17.6 C

1016.9 hpa

83 %

6.4 km/h aus 117

11.3 km/h aus S

14.6 C

17.8 C

17.6 C

17.8 C

0 W/m

0.00 mm

01:30

17.5 C

1016.9 hpa

83 %

6.4 km/h aus 113

11.3 km/h aus S

14.6 C

17.8 C

17.5 C

17.8 C

0 W/m

0.00 mm

01:35

17.4 C

1016.9 hpa

82 %

6.4 km/h aus 116

9.7 km/h aus SSE

14.3 C

17.7 C

17.4 C

17.7 C

0 W/m

0.00 mm

01:40

17.5 C

1016.9 hpa

82 %

6.4 km/h aus 116

11.3 km/h aus SSE

14.4 C

17.8 C

17.5 C

17.8 C

0 W/m

0.00 mm

01:45

17.6 C

1016.9 hpa

81 %

4.8 km/h aus 117

11.3 km/h aus SSE

14.3 C

17.8 C

17.6 C

17.8 C

0 W/m

0.00 mm

01:50

17.6 C

1016.9 hpa

81 %

1.6 km/h aus 116

6.4 km/h aus SSE

14.3 C

17.8 C

17.6 C

17.8 C

0 W/m

0.00 mm

01:55

17.7 C

1016.9 hpa

81 %

3.2 km/h aus 114

11.3 km/h aus SE

14.4 C

17.9 C

17.7 C

17.9 C

0 W/m

0.00 mm

02:00

17.7 C

1016.9 hpa

81 %

3.2 km/h aus 117

14.5 km/h aus SSE

14.4 C

17.9 C

17.7 C

17.9 C

0 W/m

0.00 mm

02:05

17.7 C

1016.9 hpa

80 %

3.2 km/h aus 116

8.0 km/h aus SE

14.2 C

18.0 C

17.7 C

18.0 C

0 W/m

0.00 mm

02:10

17.8 C

1016.9 hpa

80 %

0.0 km/h aus 118

8.0 km/h aus S

14.3 C

18.1 C

17.8 C

18.1 C

0 W/m

0.00 mm

02:15

17.8 C

1016.9 hpa

80 %

3.2 km/h aus 115

9.7 km/h aus S

14.3 C

18.1 C

17.8 C

18.1 C

0 W/m

0.00 mm

02:20

17.8 C

1016.9 hpa

79 %

3.2 km/h aus 116

6.4 km/h aus S

14.1 C

18.1 C

17.8 C

18.1 C

0 W/m

0.00 mm

02:25

17.9 C

1016.9 hpa

79 %

4.8 km/h aus 115

11.3 km/h aus S

14.2 C

18.2 C

17.9 C

18.2 C

0 W/m

0.00 mm

02:30

17.9 C

1016.9 hpa

78 %

3.2 km/h aus 117

9.7 km/h aus S

14.1 C

18.2 C

17.9 C

18.2 C

0 W/m

0.00 mm

02:35

18.0 C

1016.9 hpa

78 %

3.2 km/h aus 117

8.0 km/h aus S

14.1 C

18.2 C

18.0 C

18.2 C

0 W/m

0.00 mm

02:40

18.1 C

1016.9 hpa

77 %

1.6 km/h aus 114

6.4 km/h aus SW

14.0 C

18.3 C

18.1 C

18.3 C

0 W/m

0.00 mm

02:45

18.1 C

1016.7 hpa

77 %

0.0 km/h aus 117

3.2 km/h aus W

14.0 C

18.3 C

18.1 C

18.3 C

0 W/m

0.00 mm

02:50

18.2 C

1016.7 hpa

77 %

0.0 km/h aus 117

0.0 km/h aus ---

14.1 C

18.4 C

18.2 C

18.4 C

0 W/m

0.00 mm

02:55

18.2 C

1016.7 hpa

77 %

0.0 km/h aus 116

0.0 km/h aus ---

14.1 C

18.4 C

18.2 C

18.4 C

0 W/m

0.00 mm

03:00

18.2 C

1016.7 hpa

77 %

0.0 km/h aus 115

0.0 km/h aus ---

14.1 C

18.4 C

18.2 C

18.4 C

0 W/m

0.00 mm

03:05

18.3 C

1016.7 hpa

76 %

0.0 km/h aus 115

0.0 km/h aus ---

14.0 C

18.5 C

18.3 C

18.5 C

0 W/m

0.00 mm

03:10

18.3 C

1016.7 hpa

76 %

0.0 km/h aus 117

0.0 km/h aus ---

14.0 C

18.6 C

18.3 C

18.6 C

0 W/m

0.00 mm

03:15

18.3 C

1016.5 hpa

75 %

0.0 km/h aus 118

3.2 km/h aus W

13.8 C

18.5 C

18.3 C

18.5 C

0 W/m

0.00 mm

03:20

18.4 C

1016.5 hpa

75 %

0.0 km/h aus 115

0.0 km/h aus ---

13.9 C

18.6 C

18.4 C

18.6 C

0 W/m

0.00 mm

03:25

18.4 C

1016.5 hpa

75 %

0.0 km/h aus 115

0.0 km/h aus ---

13.9 C

18.6 C

18.4 C

18.6 C

0 W/m

0.00 mm

03:30

18.4 C

1016.4 hpa

75 %

0.0 km/h aus 116

0.0 km/h aus ---

13.9 C

18.6 C

18.4 C

18.6 C

0 W/m

0.00 mm

03:35

18.4 C

1016.4 hpa

75 %

0.0 km/h aus 117

0.0 km/h aus ---

13.9 C

18.6 C

18.4 C

18.6 C

0 W/m

0.00 mm

03:40

18.4 C

1016.4 hpa

75 %

0.0 km/h aus 117

0.0 km/h aus ---

13.9 C

18.6 C

18.4 C

18.6 C

0 W/m

0.00 mm

03:45

18.4 C

1016.5 hpa

75 %

0.0 km/h aus 114

0.0 km/h aus ---

13.9 C

18.6 C

18.4 C

18.6 C

0 W/m

0.00 mm

03:50

18.5 C

1016.5 hpa

75 %

0.0 km/h aus 116

3.2 km/h aus W

14.0 C

18.7 C

18.5 C

18.7 C

0 W/m

0.00 mm

03:55

18.4 C

1016.5 hpa

75 %

0.0 km/h aus 116

4.8 km/h aus W

13.9 C

18.6 C

18.4 C

18.6 C

0 W/m

0.00 mm

04:00

18.4 C

1016.4 hpa

74 %

0.0 km/h aus 117

3.2 km/h aus WSW

13.7 C

18.6 C

18.4 C

18.6 C

0 W/m

0.00 mm

04:05

18.4 C

1016.4 hpa

74 %

0.0 km/h aus 116

1.6 km/h aus WSW

13.7 C

18.6 C

18.4 C

18.6 C

0 W/m

0.00 mm

04:10

18.4 C

1016.4 hpa

74 %

0.0 km/h aus 115

0.0 km/h aus ---

13.7 C

18.6 C

18.4 C

18.6 C

0 W/m

0.00 mm

04:15

18.5 C

1016.5 hpa

75 %

0.0 km/h aus 117

0.0 km/h aus ---

14.0 C

18.7 C

18.5 C

18.7 C

0 W/m

0.00 mm

04:20

18.5 C

1016.5 hpa

75 %

0.0 km/h aus 116

0.0 km/h aus ---

14.0 C

18.7 C

18.5 C

18.7 C

0 W/m

0.00 mm

04:25

18.4 C

1016.5 hpa

75 %

0.0 km/h aus 116

0.0 km/h aus ---

13.9 C

18.6 C

18.4 C

18.6 C

0 W/m

0.00 mm

04:30

18.4 C

1016.4 hpa

75 %

0.0 km/h aus 115

0.0 km/h aus ---

13.9 C

18.6 C

18.4 C

18.6 C

0 W/m

0.00 mm

04:35

18.4 C

1016.4 hpa

75 %

0.0 km/h aus 115

0.0 km/h aus ---

13.9 C

18.6 C

18.4 C

18.6 C

0 W/m

0.00 mm

04:40

18.3 C

1016.4 hpa

75 %

0.0 km/h aus 117

0.0 km/h aus ---

13.8 C

18.5 C

18.3 C

18.5 C

0 W/m

0.00 mm

04:45

18.3 C

1016.4 hpa

75 %

0.0 km/h aus 117

0.0 km/h aus ---

13.8 C

18.4 C

18.3 C

18.4 C

0 W/m

0.00 mm

04:50

18.2 C

1016.4 hpa

76 %

1.6 km/h aus 117

6.4 km/h aus WSW

13.9 C

18.4 C

18.2 C

18.4 C

0 W/m

0.00 mm

04:55

18.2 C

1016.4 hpa

76 %

1.6 km/h aus 114

6.4 km/h aus WSW

13.9 C

18.3 C

18.2 C

18.3 C

0 W/m

0.00 mm

05:00

18.1 C

1016.5 hpa

77 %

1.6 km/h aus 116

4.8 km/h aus WSW

14.0 C

18.3 C

18.1 C

18.3 C

0 W/m

0.00 mm

05:05

18.1 C

1016.5 hpa

77 %

0.0 km/h aus 116

3.2 km/h aus WSW

14.0 C

18.3 C

18.1 C

18.3 C

0 W/m

0.00 mm

05:10

18.1 C

1016.5 hpa

77 %

0.0 km/h aus 116

3.2 km/h aus W

14.0 C

18.3 C

18.1 C

18.3 C

3 W/m

0.00 mm

05:15

18.0 C

1016.7 hpa

78 %

1.6 km/h aus 116

4.8 km/h aus W

14.1 C

18.2 C

18.0 C

18.2 C

5 W/m

0.00 mm

05:20

17.9 C

1016.7 hpa

79 %

1.6 km/h aus 114

6.4 km/h aus W

14.2 C

18.2 C

17.9 C

18.2 C

7 W/m

0.00 mm

05:25

17.9 C

1016.7 hpa

79 %

1.6 km/h aus 117

6.4 km/h aus WSW

14.2 C

18.2 C

17.9 C

18.2 C

10 W/m

0.00 mm

05:30

17.8 C

1016.9 hpa

79 %

3.2 km/h aus 117

11.3 km/h aus SW

14.1 C

18.1 C

17.8 C

18.1 C

12 W/m

0.00 mm

05:35

17.8 C

1016.9 hpa

79 %

3.2 km/h aus 116

8.0 km/h aus SW

14.1 C

18.0 C

17.8 C

18.0 C

15 W/m

0.00 mm

05:40

17.7 C

1016.9 hpa

79 %

3.2 km/h aus 114

6.4 km/h aus SW

14.0 C

17.9 C

17.7 C

17.9 C

18 W/m

0.00 mm

05:45

17.7 C

1016.9 hpa

79 %

4.8 km/h aus 114

11.3 km/h aus SW

14.0 C

17.9 C

17.7 C

17.9 C

18 W/m

0.00 mm

05:50

17.7 C

1016.9 hpa

79 %

4.8 km/h aus 116

11.3 km/h aus SSW

14.0 C

17.9 C

17.7 C

17.9 C

23 W/m

0.00 mm

05:55

17.7 C

1016.9 hpa

80 %

1.6 km/h aus 117

8.0 km/h aus S

14.2 C

18.0 C

17.7 C

18.0 C

25 W/m

0.00 mm

06:00

17.8 C

1017.0 hpa

80 %

3.2 km/h aus 117

8.0 km/h aus S

14.3 C

18.1 C

17.8 C

18.1 C

28 W/m

0.00 mm

06:05

17.8 C

1017.0 hpa

80 %

3.2 km/h aus 114

9.7 km/h aus S

14.3 C

18.1 C

17.8 C

18.1 C

29 W/m

0.00 mm

06:10

17.9 C

1017.0 hpa

80 %

4.8 km/h aus 116

11.3 km/h aus SW

14.4 C

18.2 C

17.9 C

18.2 C

39 W/m

0.00 mm

06:15

17.9 C

1017.3 hpa

80 %

4.8 km/h aus 116

9.7 km/h aus SW

14.4 C

18.3 C

17.9 C

18.3 C

45 W/m

0.00 mm

06:20

18.0 C

1017.3 hpa

80 %

4.8 km/h aus 117

9.7 km/h aus SW

14.5 C

18.3 C

18.0 C

18.3 C

49 W/m

0.00 mm

06:25

18.1 C

1017.3 hpa

80 %

4.8 km/h aus 116

11.3 km/h aus SW

14.6 C

18.4 C

18.1 C

18.4 C

51 W/m

0.00 mm

06:30

18.1 C

1017.3 hpa

80 %

4.8 km/h aus 114

11.3 km/h aus SW

14.6 C

18.4 C

18.1 C

18.4 C

53 W/m

0.00 mm

06:35

18.2 C

1017.3 hpa

80 %

4.8 km/h aus 117

12.9 km/h aus SSW

14.7 C

18.5 C

18.2 C

18.5 C

58 W/m

0.00 mm

06:40

18.2 C

1017.3 hpa

79 %

4.8 km/h aus 117

9.7 km/h aus SSW

14.5 C

18.6 C

18.2 C

18.6 C

52 W/m

0.00 mm

06:45

18.2 C

1017.4 hpa

79 %

3.2 km/h aus 115

9.7 km/h aus SW

14.5 C

18.6 C

18.2 C

18.6 C

66 W/m

0.00 mm

06:50

18.3 C

1017.4 hpa

79 %

3.2 km/h aus 114

11.3 km/h aus SSW

14.6 C

18.6 C

18.3 C

18.6 C

152 W/m

0.00 mm

06:55

18.3 C

1017.4 hpa

79 %

4.8 km/h aus 116

9.7 km/h aus SSW

14.6 C

18.7 C

18.3 C

18.7 C

146 W/m

0.00 mm

07:00

18.4 C

1017.4 hpa

79 %

8.0 km/h aus 117

16.1 km/h aus SSW

14.7 C

18.8 C

18.4 C

18.8 C

153 W/m

0.00 mm

07:05

18.6 C

1017.4 hpa

79 %

8.0 km/h aus 117

17.7 km/h aus SW

14.8 C

18.9 C

18.6 C

18.9 C

227 W/m

0.00 mm

07:10

18.7 C

1017.4 hpa

79 %

11.3 km/h aus 116

20.9 km/h aus SSW

15.0 C

19.2 C

18.7 C

19.2 C

116 W/m

0.00 mm

07:15

18.8 C

1017.5 hpa

79 %

4.8 km/h aus 114

14.5 km/h aus SSW

15.1 C

19.3 C

18.8 C

19.3 C

116 W/m

0.00 mm

07:20

19.0 C

1017.5 hpa

78 %

6.4 km/h aus 117

17.7 km/h aus W

15.1 C

19.4 C

19.0 C

19.4 C

237 W/m

0.00 mm

07:25

19.1 C

1017.5 hpa

78 %

6.4 km/h aus 116

17.7 km/h aus WSW

15.2 C

19.6 C

19.1 C

19.6 C

208 W/m

0.00 mm

07:30

19.4 C

1017.7 hpa

78 %

8.0 km/h aus 118

24.1 km/h aus SW

15.5 C

19.9 C

19.4 C

19.9 C

298 W/m

0.00 mm

07:35

19.7 C

1017.7 hpa

77 %

8.0 km/h aus 115

25.7 km/h aus SW

15.5 C

20.2 C

19.7 C

20.2 C

396 W/m

0.00 mm

07:40

19.6 C

1017.7 hpa

76 %

8.0 km/h aus 116

22.5 km/h aus SSW

15.2 C

20.0 C

19.6 C

20.0 C

172 W/m

0.00 mm

07:45

19.3 C

1017.9 hpa

77 %

9.7 km/h aus 117

25.7 km/h aus SSW

15.2 C

19.8 C

19.3 C

19.8 C

144 W/m

0.00 mm

07:50

19.3 C

1017.9 hpa

77 %

8.0 km/h aus 117

17.7 km/h aus SW

15.2 C

19.8 C

19.3 C

19.8 C

118 W/m

0.00 mm

07:55

19.3 C

1017.9 hpa

77 %

6.4 km/h aus 116

20.9 km/h aus SW

15.1 C

19.7 C

19.3 C

19.7 C

185 W/m

0.00 mm

08:00

19.4 C

1017.9 hpa

76 %

9.7 km/h aus 115

20.9 km/h aus S

15.1 C

19.9 C

19.4 C

19.9 C

362 W/m

0.00 mm

08:05

19.7 C

1017.9 hpa

74 %

9.7 km/h aus 116

20.9 km/h aus SSW

14.9 C

20.1 C

19.7 C

20.1 C

378 W/m

0.00 mm

08:10

20.0 C

1017.9 hpa

73 %

4.8 km/h aus 116

9.7 km/h aus WSW

15.0 C

20.4 C

20.0 C

20.4 C

409 W/m

0.00 mm

08:15

20.2 C

1017.9 hpa

72 %

9.7 km/h aus 117

20.9 km/h aus SSW

15.0 C

20.6 C

20.2 C

20.6 C

427 W/m

0.00 mm

08:20

20.4 C

1017.9 hpa

72 %

6.4 km/h aus 113

14.5 km/h aus SW

15.2 C

20.8 C

20.4 C

20.8 C

437 W/m

0.00 mm

08:25

20.6 C

1017.9 hpa

70 %

11.3 km/h aus 116

24.1 km/h aus SSW

14.9 C

20.8 C

20.6 C

20.8 C

437 W/m

0.00 mm

08:30

20.7 C

1017.9 hpa

70 %

12.9 km/h aus 118

25.7 km/h aus SSW

15.0 C

20.4 C

20.3 C

20.8 C

462 W/m

0.00 mm

08:35

20.7 C

1017.9 hpa

69 %

14.5 km/h aus 117

25.7 km/h aus SSW

14.8 C

20.1 C

19.9 C

20.8 C

464 W/m

0.00 mm

08:40

20.8 C

1017.9 hpa

69 %

12.9 km/h aus 114

32.2 km/h aus S

14.9 C

20.6 C

20.5 C

20.9 C

475 W/m

0.00 mm

08:45

20.9 C

1017.9 hpa

68 %

11.3 km/h aus 114

24.1 km/h aus SSW

14.8 C

20.9 C

20.9 C

20.9 C

489 W/m

0.00 mm

08:50

21.2 C

1017.9 hpa

67 %

9.7 km/h aus 117

24.1 km/h aus WSW

14.8 C

21.1 C

21.2 C

21.1 C

495 W/m

0.00 mm

08:55

21.1 C

1017.9 hpa

67 %

12.9 km/h aus 117

25.7 km/h aus SSW

14.7 C

20.7 C

20.8 C

21.0 C

501 W/m

0.00 mm

09:00

21.3 C

1017.9 hpa

66 %

8.0 km/h aus 117

17.7 km/h aus WSW

14.7 C

21.3 C

21.3 C

21.3 C

507 W/m

0.00 mm

09:05

21.1 C

1017.9 hpa

65 %

14.5 km/h aus 114

25.7 km/h aus SSW

14.3 C

20.2 C

20.3 C

20.9 C

512 W/m

0.00 mm

09:10

21.1 C

1017.9 hpa

66 %

11.3 km/h aus 116

24.1 km/h aus WSW

14.5 C

20.9 C

21.1 C

20.9 C

521 W/m

0.00 mm

09:15

21.2 C

1017.9 hpa

66 %

12.9 km/h aus 116

24.1 km/h aus SW

14.6 C

20.8 C

20.9 C

21.1 C

536 W/m

0.00 mm

09:20

21.5 C

1017.9 hpa

66 %

6.4 km/h aus 117

16.1 km/h aus WSW

14.9 C

21.4 C

21.5 C

21.4 C

551 W/m

0.00 mm

09:25

21.6 C

1017.9 hpa

65 %

8.0 km/h aus 115

19.3 km/h aus WSW

14.7 C

21.5 C

21.6 C

21.5 C

553 W/m

0.00 mm

09:30

21.5 C

1017.9 hpa

66 %

8.0 km/h aus 116

19.3 km/h aus WSW

14.9 C

21.4 C

21.5 C

21.4 C

562 W/m

0.00 mm

09:35

21.7 C

1017.9 hpa

65 %

11.3 km/h aus 118

29.0 km/h aus SSE

14.9 C

21.7 C

21.7 C

21.7 C

554 W/m

0.00 mm

09:40

21.7 C

1017.9 hpa

64 %

12.9 km/h aus 116

29.0 km/h aus S

14.6 C

21.4 C

21.4 C

21.7 C

560 W/m

0.00 mm

09:45

21.7 C

1017.9 hpa

62 %

17.7 km/h aus 113

33.8 km/h aus SSW

14.1 C

20.1 C

20.3 C

21.6 C

562 W/m

0.00 mm

09:50

21.8 C

1017.9 hpa

61 %

12.9 km/h aus 116

30.6 km/h aus SSW

13.9 C

21.3 C

21.5 C

21.6 C

568 W/m

0.00 mm

09:55

21.8 C

1017.9 hpa

63 %

16.1 km/h aus 117

30.6 km/h aus SW

14.5 C

20.6 C

20.7 C

21.8 C

567 W/m

0.00 mm

10:00

21.9 C

1017.9 hpa

62 %

11.3 km/h aus 116

22.5 km/h aus S

14.3 C

21.9 C

21.9 C

21.9 C

570 W/m

0.00 mm

10:05

22.2 C

1017.9 hpa

63 %

16.1 km/h aus 116

29.0 km/h aus SSW

14.8 C

21.1 C

21.0 C

22.2 C

575 W/m

0.00 mm

10:10

22.1 C

1017.9 hpa

61 %

17.7 km/h aus 114

30.6 km/h aus SW

14.2 C

20.6 C

20.7 C

22.1 C

576 W/m

0.00 mm

10:15

22.1 C

1018.1 hpa

60 %

14.5 km/h aus 116

27.4 km/h aus SSW

14.0 C

21.2 C

21.3 C

22.0 C

593 W/m

0.00 mm

10:20

22.2 C

1018.1 hpa

60 %

17.7 km/h aus 117

30.6 km/h aus S

14.1 C

20.7 C

20.8 C

22.2 C

589 W/m

0.00 mm

10:25

22.4 C

1018.1 hpa

61 %

14.5 km/h aus 115

29.0 km/h aus S

14.5 C

21.7 C

21.6 C

22.4 C

592 W/m

0.00 mm

10:30

22.4 C

1018.0 hpa

59 %

14.5 km/h aus 114

29.0 km/h aus SW

14.0 C

21.6 C

21.6 C

22.4 C

520 W/m

0.00 mm

10:35

22.3 C

1018.0 hpa

60 %

14.5 km/h aus 116

29.0 km/h aus WSW

14.2 C

21.6 C

21.6 C

22.3 C

572 W/m

0.00 mm

10:40

22.1 C

1018.0 hpa

61 %

14.5 km/h aus 118

25.7 km/h aus SSW

14.2 C

21.3 C

21.3 C

22.1 C

509 W/m

0.00 mm

10:45

22.2 C

1017.9 hpa

60 %

12.9 km/h aus 116

24.1 km/h aus W

14.0 C

21.8 C

21.9 C

22.1 C

471 W/m

0.00 mm

10:50

22.0 C

1017.9 hpa

60 %

14.5 km/h aus 115

27.4 km/h aus WSW

13.9 C

21.1 C

21.2 C

21.8 C

439 W/m

0.00 mm

10:55

22.3 C

1017.9 hpa

62 %

11.3 km/h aus 115

22.5 km/h aus SW

14.7 C

22.4 C

22.3 C

22.4 C

625 W/m

0.00 mm

11:00

22.7 C

1018.0 hpa

61 %

8.0 km/h aus 116

20.9 km/h aus WSW

14.8 C

22.9 C

22.7 C

22.9 C

498 W/m

0.00 mm

11:05

22.7 C

1018.0 hpa

62 %

9.7 km/h aus 117

24.1 km/h aus S

15.0 C

22.9 C

22.7 C

22.9 C

466 W/m

0.00 mm

11:10

22.3 C

1018.0 hpa

62 %

12.9 km/h aus 117

24.1 km/h aus SSW

14.6 C

22.1 C

22.0 C

22.3 C

475 W/m

0.00 mm

11:15

23.2 C

1017.9 hpa

62 %

8.0 km/h aus 114

16.1 km/h aus SSW

15.5 C

23.7 C

23.2 C

23.7 C

627 W/m

0.00 mm

11:20

23.3 C

1017.9 hpa

59 %

9.7 km/h aus 117

20.9 km/h aus SSW

14.9 C

23.7 C

23.3 C

23.7 C

594 W/m

0.00 mm

11:25

23.8 C

1017.9 hpa

62 %

11.3 km/h aus 117

25.7 km/h aus SW

16.1 C

24.3 C

23.8 C

24.3 C

606 W/m

0.00 mm

11:30

23.1 C

1018.0 hpa

58 %

11.3 km/h aus 117

25.7 km/h aus SW

14.3 C

23.3 C

23.1 C

23.3 C

454 W/m

0.00 mm

11:35

23.3 C

1018.0 hpa

60 %

8.0 km/h aus 114

19.3 km/h aus SW

15.1 C

23.7 C

23.3 C

23.7 C

574 W/m

0.00 mm

11:40

23.6 C

1018.0 hpa

57 %

8.0 km/h aus 116

19.3 km/h aus W

14.5 C

23.8 C

23.6 C

23.8 C

486 W/m

0.00 mm

11:45

23.3 C

1018.1 hpa

57 %

9.7 km/h aus 117

20.9 km/h aus S

14.3 C

23.5 C

23.3 C

23.5 C

485 W/m

0.00 mm

11:50

23.2 C

1018.1 hpa

58 %

9.7 km/h aus 117

20.9 km/h aus W

14.5 C

23.4 C

23.2 C

23.4 C

499 W/m

0.00 mm

11:55

22.9 C

1018.1 hpa

58 %

8.0 km/h aus 116

20.9 km/h aus SSW

14.2 C

23.1 C

22.9 C

23.1 C

480 W/m

0.00 mm

12:00

22.7 C

1018.3 hpa

58 %

9.7 km/h aus 114

22.5 km/h aus WSW

14.0 C

22.8 C

22.7 C

22.8 C

489 W/m

0.00 mm

12:05

22.7 C

1018.3 hpa

60 %

11.3 km/h aus 117

22.5 km/h aus SSW

14.6 C

22.9 C

22.7 C

22.9 C

487 W/m

0.00 mm

12:10

22.9 C

1018.3 hpa

59 %

9.7 km/h aus 116

22.5 km/h aus WSW

14.5 C

23.1 C

22.9 C

23.1 C

438 W/m

0.00 mm

12:15

23.4 C

1018.2 hpa

58 %

8.0 km/h aus 117

17.7 km/h aus SSW

14.7 C

23.7 C

23.4 C

23.7 C

622 W/m

0.00 mm

12:20

24.0 C

1018.2 hpa

55 %

11.3 km/h aus 114

24.1 km/h aus SSW

14.4 C

24.3 C

24.0 C

24.3 C

625 W/m

0.00 mm

12:25

23.7 C

1018.2 hpa

54 %

11.3 km/h aus 117

24.1 km/h aus SSW

13.9 C

23.9 C

23.7 C

23.9 C

613 W/m

0.00 mm

12:30

23.7 C

1018.3 hpa

54 %

12.9 km/h aus 117

27.4 km/h aus SSW

13.8 C

23.6 C

23.4 C

23.8 C

614 W/m

0.00 mm

12:35

23.1 C

1018.3 hpa

53 %

11.3 km/h aus 117

24.1 km/h aus WSW

13.0 C

23.0 C

23.1 C

23.0 C

219 W/m

0.00 mm

12:40

22.9 C

1018.3 hpa

54 %

11.3 km/h aus 115

29.0 km/h aus SW

13.1 C

22.8 C

22.9 C

22.8 C

414 W/m

0.00 mm

12:45

23.7 C

1018.0 hpa

53 %

14.5 km/h aus 117

30.6 km/h aus W

13.5 C

23.1 C

22.9 C

23.8 C

630 W/m

0.00 mm

12:50

24.1 C

1018.0 hpa

52 %

12.9 km/h aus 117

24.1 km/h aus W

13.6 C

23.9 C

23.8 C

24.2 C

634 W/m

0.00 mm

12:55

24.0 C

1018.0 hpa

52 %

14.5 km/h aus 115

27.4 km/h aus SSW

13.5 C

23.4 C

23.3 C

24.1 C

636 W/m

0.00 mm

13:00

23.7 C

1018.2 hpa

52 %

17.7 km/h aus 114

33.8 km/h aus S

13.3 C

22.5 C

22.4 C

23.8 C

414 W/m

0.00 mm

13:05

23.5 C

1018.2 hpa

53 %

9.7 km/h aus 115

27.4 km/h aus W

13.4 C

23.6 C

23.5 C

23.6 C

532 W/m

0.00 mm

13:10

23.8 C

1018.2 hpa

51 %

11.3 km/h aus 117

25.7 km/h aus WSW

13.0 C

23.8 C

23.8 C

23.8 C

510 W/m

0.00 mm

13:15

24.2 C

1018.2 hpa

51 %

12.9 km/h aus 117

25.7 km/h aus SW

13.4 C

23.9 C

23.9 C

24.2 C

641 W/m

0.00 mm

13:20

23.9 C

1018.2 hpa

52 %

12.9 km/h aus 115

32.2 km/h aus SSW

13.4 C

23.8 C

23.6 C

24.1 C

592 W/m

0.00 mm

13:25

24.2 C

1018.2 hpa

53 %

12.9 km/h aus 115

24.1 km/h aus SSW

14.0 C

24.1 C

23.9 C

24.3 C

635 W/m

0.00 mm

13:30

23.8 C

1018.2 hpa

52 %

12.9 km/h aus 117

29.0 km/h aus SSW

13.4 C

23.7 C

23.6 C

23.9 C

478 W/m

0.00 mm

13:35

23.6 C

1018.2 hpa

53 %

8.0 km/h aus 116

19.3 km/h aus SW

13.5 C

23.7 C

23.6 C

23.7 C

479 W/m

0.00 mm

13:40

24.2 C

1018.2 hpa

53 %

8.0 km/h aus 117

29.0 km/h aus S

14.0 C

24.3 C

24.2 C

24.3 C

593 W/m

0.00 mm

13:45

24.2 C

1018.2 hpa

52 %

9.7 km/h aus 114

27.4 km/h aus S

13.7 C

24.3 C

24.2 C

24.3 C

321 W/m

0.00 mm

13:50

23.2 C

1018.2 hpa

52 %

14.5 km/h aus 116

29.0 km/h aus SW

12.8 C

22.4 C

22.5 C

23.2 C

340 W/m

0.00 mm

13:55

23.5 C

1018.2 hpa

54 %

16.1 km/h aus 117

29.0 km/h aus SSW

13.7 C

22.5 C

22.4 C

23.6 C

591 W/m

0.00 mm

14:00

23.8 C

1018.3 hpa

52 %

11.3 km/h aus 116

24.1 km/h aus SSW

13.3 C

23.9 C

23.8 C

23.9 C

559 W/m

0.00 mm

14:05

24.4 C

1018.3 hpa

52 %

11.3 km/h aus 115

22.5 km/h aus S

13.9 C

24.5 C

24.4 C

24.5 C

617 W/m

0.00 mm

14:10

24.1 C

1018.3 hpa

52 %

8.0 km/h aus 116

19.3 km/h aus W

13.6 C

24.2 C

24.1 C

24.2 C

393 W/m

0.00 mm

14:15

24.1 C

1018.0 hpa

56 %

4.8 km/h aus 116

9.7 km/h aus SW

14.8 C

24.4 C

24.1 C

24.4 C

496 W/m

0.00 mm

14:20

25.1 C

1018.0 hpa

52 %

11.3 km/h aus 117

22.5 km/h aus SW

14.5 C

25.1 C

25.1 C

25.1 C

600 W/m

0.00 mm

14:25

24.8 C

1018.0 hpa

49 %

16.1 km/h aus 115

27.4 km/h aus SSW

13.3 C

23.6 C

23.7 C

24.7 C

617 W/m

0.00 mm

14:30

24.1 C

1018.0 hpa

51 %

17.7 km/h aus 114

37.0 km/h aus SSW

13.3 C

22.8 C

22.8 C

24.2 C

522 W/m

0.00 mm

14:35

24.4 C

1018.0 hpa

52 %

12.9 km/h aus 117

24.1 km/h aus S

13.9 C

24.2 C

24.2 C

24.5 C

521 W/m

0.00 mm

14:40

24.3 C

1018.0 hpa

51 %

12.9 km/h aus 117

25.7 km/h aus SW

13.5 C

24.1 C

24.1 C

24.4 C

430 W/m

0.00 mm

14:45

23.8 C

1018.1 hpa

51 %

12.9 km/h aus 116

27.4 km/h aus W

13.1 C

23.6 C

23.6 C

23.9 C

265 W/m

0.00 mm

14:50

23.4 C

1018.1 hpa

52 %

16.1 km/h aus 114

29.0 km/h aus WSW

13.0 C

22.2 C

22.3 C

23.3 C

290 W/m

0.00 mm

14:55

23.3 C

1018.1 hpa

53 %

12.9 km/h aus 117

25.7 km/h aus SW

13.2 C

23.1 C

23.1 C

23.3 C

469 W/m

0.00 mm

15:00

24.7 C

1018.1 hpa

51 %

9.7 km/h aus 117

20.9 km/h aus SW

13.9 C

24.7 C

24.7 C

24.7 C

637 W/m

0.00 mm

15:05

24.4 C

1018.1 hpa

52 %

9.7 km/h aus 117

22.5 km/h aus S

13.9 C

24.4 C

24.4 C

24.4 C

529 W/m

0.00 mm

15:10

24.8 C

1018.1 hpa

51 %

11.3 km/h aus 113

24.1 km/h aus WNW

14.0 C

24.8 C

24.8 C

24.8 C

605 W/m

0.00 mm

15:15

24.6 C

1018.0 hpa

51 %

9.7 km/h aus 116

24.1 km/h aus W

13.7 C

24.6 C

24.6 C

24.6 C

457 W/m

0.00 mm

15:20

24.7 C

1018.0 hpa

52 %

12.9 km/h aus 117

22.5 km/h aus WSW

14.2 C

24.5 C

24.4 C

24.8 C

613 W/m

0.00 mm

15:25

24.7 C

1018.0 hpa

52 %

9.7 km/h aus 117

25.7 km/h aus W

14.2 C

24.7 C

24.7 C

24.7 C

611 W/m

0.00 mm

15:30

25.1 C

1017.9 hpa

52 %

12.9 km/h aus 115

27.4 km/h aus S

14.6 C

24.8 C

24.8 C

25.1 C

603 W/m

0.00 mm

15:35

24.8 C

1017.9 hpa

49 %

11.3 km/h aus 113

24.1 km/h aus WSW

13.3 C

24.7 C

24.8 C

24.7 C

471 W/m

0.00 mm

15:40

23.9 C

1017.9 hpa

50 %

17.7 km/h aus 116

33.8 km/h aus SW

12.8 C

22.6 C

22.6 C

23.9 C

206 W/m

0.00 mm

15:45

23.4 C

1017.9 hpa

52 %

12.9 km/h aus 116

27.4 km/h aus SSW

13.0 C

23.2 C

23.2 C

23.4 C

233 W/m

0.00 mm

15:50

23.4 C

1017.9 hpa

52 %

12.9 km/h aus 115

33.8 km/h aus SW

13.0 C

23.1 C

23.1 C

23.3 C

291 W/m

0.00 mm

15:55

23.9 C

1017.9 hpa

53 %

11.3 km/h aus 116

24.1 km/h aus SSW

13.8 C

24.1 C

23.9 C

24.1 C

576 W/m

0.00 mm

16:00

24.6 C

1017.9 hpa

50 %

12.9 km/h aus 116

24.1 km/h aus WNW

13.4 C

24.3 C

24.3 C

24.6 C

596 W/m

0.00 mm

16:05

24.7 C

1017.9 hpa

49 %

14.5 km/h aus 117

29.0 km/h aus W

13.2 C

23.8 C

23.9 C

24.6 C

595 W/m

0.00 mm

16:10

24.6 C

1017.9 hpa

50 %

12.9 km/h aus 116

25.7 km/h aus S

13.4 C

24.3 C

24.3 C

24.6 C

588 W/m

0.00 mm

16:15

24.8 C

1017.9 hpa

49 %

12.9 km/h aus 114

30.6 km/h aus W

13.4 C

24.4 C

24.6 C

24.7 C

579 W/m

0.00 mm

16:20

25.1 C

1017.9 hpa

50 %

9.7 km/h aus 117

24.1 km/h aus SSW

14.0 C

25.0 C

25.1 C

25.0 C

576 W/m

0.00 mm

16:25

25.0 C

1017.9 hpa

49 %

8.0 km/h aus 115

25.7 km/h aus WNW

13.5 C

24.8 C

25.0 C

24.8 C

565 W/m

0.00 mm

16:30

25.0 C

1017.8 hpa

49 %

11.3 km/h aus 117

30.6 km/h aus W

13.5 C

24.8 C

25.0 C

24.8 C

562 W/m

0.00 mm

16:35

25.1 C

1017.8 hpa

48 %

12.9 km/h aus 113

24.1 km/h aus W

13.3 C

24.7 C

24.8 C

24.9 C

563 W/m

0.00 mm

16:40

25.0 C

1017.8 hpa

48 %

9.7 km/h aus 117

19.3 km/h aus SW

13.2 C

24.8 C

25.0 C

24.8 C

556 W/m

0.00 mm

16:45

25.0 C

1017.8 hpa

48 %

9.7 km/h aus 115

20.9 km/h aus WSW

13.2 C

24.8 C

25.0 C

24.8 C

547 W/m

0.00 mm

16:50

25.3 C

1017.8 hpa

48 %

6.4 km/h aus 117

14.5 km/h aus W

13.5 C

25.2 C

25.3 C

25.2 C

549 W/m

0.00 mm

16:55

25.4 C

1017.8 hpa

48 %

9.7 km/h aus 115

24.1 km/h aus SW

13.6 C

25.3 C

25.4 C

25.3 C

542 W/m

0.00 mm

17:00

25.3 C

1017.6 hpa

49 %

9.7 km/h aus 117

22.5 km/h aus SSW

13.8 C

25.2 C

25.3 C

25.2 C

531 W/m

0.00 mm

17:05

25.2 C

1017.6 hpa

48 %

12.9 km/h aus 116

25.7 km/h aus NW

13.4 C

24.7 C

24.9 C

25.0 C

529 W/m

0.00 mm

17:10

25.1 C

1017.6 hpa

47 %

12.9 km/h aus 117

22.5 km/h aus WSW

13.0 C

24.6 C

24.8 C

24.8 C

523 W/m

0.00 mm

17:15

25.2 C

1017.5 hpa

49 %

11.3 km/h aus 116

25.7 km/h aus WSW

13.7 C

25.1 C

25.2 C

25.1 C

519 W/m

0.00 mm

17:20

25.2 C

1017.5 hpa

47 %

9.7 km/h aus 115

20.9 km/h aus W

13.1 C

25.0 C

25.2 C

25.0 C

508 W/m

0.00 mm

17:25

25.3 C

1017.5 hpa

48 %

6.4 km/h aus 116

24.1 km/h aus WSW

13.5 C

25.2 C

25.3 C

25.2 C

499 W/m

0.00 mm

17:30

25.2 C

1017.4 hpa

47 %

17.7 km/h aus 117

29.0 km/h aus W

13.1 C

23.8 C

23.9 C

25.1 C

492 W/m

0.00 mm

17:35

25.0 C

1017.4 hpa

48 %

9.7 km/h aus 116

20.9 km/h aus WSW

13.2 C

24.8 C

25.0 C

24.8 C

483 W/m

0.00 mm

17:40

24.9 C

1017.4 hpa

47 %

12.9 km/h aus 114

29.0 km/h aus WSW

12.9 C

24.4 C

24.7 C

24.7 C

477 W/m

0.00 mm

17:45

24.9 C

1017.4 hpa

48 %

9.7 km/h aus 117

30.6 km/h aus SSW

13.2 C

24.8 C

24.9 C

24.8 C

469 W/m

0.00 mm

17:50

25.0 C

1017.4 hpa

47 %

11.3 km/h aus 117

25.7 km/h aus W

12.9 C

24.8 C

25.0 C

24.8 C

458 W/m

0.00 mm

17:55

24.9 C

1017.4 hpa

48 %

9.7 km/h aus 117

19.3 km/h aus WSW

13.1 C

24.7 C

24.9 C

24.7 C

450 W/m

0.00 mm

18:00

25.0 C

1017.3 hpa

49 %

9.7 km/h aus 115

20.9 km/h aus WSW

13.5 C

24.8 C

25.0 C

24.8 C

442 W/m

0.00 mm

18:05

25.1 C

1017.3 hpa

48 %

9.7 km/h aus 117

19.3 km/h aus WSW

13.3 C

24.9 C

25.1 C

24.9 C

429 W/m

0.00 mm

18:10

24.8 C

1017.3 hpa

49 %

9.7 km/h aus 117

20.9 km/h aus WSW

13.4 C

24.7 C

24.8 C

24.7 C

414 W/m

0.00 mm

18:15

24.8 C

1017.4 hpa

49 %

8.0 km/h aus 116

19.3 km/h aus S

13.3 C

24.7 C

24.8 C

24.7 C

402 W/m

0.00 mm

18:20

24.7 C

1017.4 hpa

48 %

9.7 km/h aus 115

27.4 km/h aus S

12.9 C

24.6 C

24.7 C

24.6 C

388 W/m

0.00 mm

18:25

24.6 C

1017.4 hpa

49 %

9.7 km/h aus 115

20.9 km/h aus SW

13.1 C

24.5 C

24.6 C

24.5 C

381 W/m

0.00 mm

18:30

24.6 C

1017.4 hpa

49 %

9.7 km/h aus 117

22.5 km/h aus SW

13.2 C

24.6 C

24.6 C

24.6 C

378 W/m

0.00 mm

18:35

24.5 C

1017.4 hpa

49 %

9.7 km/h aus 117

22.5 km/h aus W

13.1 C

24.4 C

24.5 C

24.4 C

340 W/m

0.00 mm

18:40

24.3 C

1017.4 hpa

49 %

9.7 km/h aus 117

24.1 km/h aus NW

12.9 C

24.3 C

24.3 C

24.3 C

324 W/m

0.00 mm

18:45

24.3 C

1017.4 hpa

49 %

8.0 km/h aus 114

19.3 km/h aus SSW

12.9 C

24.3 C

24.3 C

24.3 C

340 W/m

0.00 mm

18:50

24.2 C

1017.4 hpa

49 %

11.3 km/h aus 117

25.7 km/h aus WSW

12.8 C

24.2 C

24.2 C

24.2 C

260 W/m

0.00 mm

18:55

24.1 C

1017.4 hpa

49 %

11.3 km/h aus 117

24.1 km/h aus WSW

12.7 C

24.1 C

24.1 C

24.1 C

66 W/m

0.00 mm

19:00

23.9 C

1017.3 hpa

49 %

8.0 km/h aus 116

14.5 km/h aus W

12.6 C

23.9 C

23.9 C

23.9 C

62 W/m

0.00 mm

19:05

23.9 C

1017.3 hpa

50 %

6.4 km/h aus 116

19.3 km/h aus S

12.8 C

23.9 C

23.9 C

23.9 C

57 W/m

0.00 mm

19:10

23.8 C

1017.3 hpa

49 %

8.0 km/h aus 116

19.3 km/h aus WSW

12.5 C

23.8 C

23.8 C

23.8 C

53 W/m

0.00 mm

19:15

23.8 C

1017.3 hpa

49 %

8.0 km/h aus 117

17.7 km/h aus SW

12.4 C

23.7 C

23.8 C

23.7 C

52 W/m

0.00 mm

19:20

23.8 C

1017.3 hpa

50 %

6.4 km/h aus 116

17.7 km/h aus SW

12.7 C

23.8 C

23.8 C

23.8 C

47 W/m

0.00 mm

19:25

23.7 C

1017.3 hpa

49 %

4.8 km/h aus 113

9.7 km/h aus WSW

12.4 C

23.7 C

23.7 C

23.7 C

45 W/m

0.00 mm

19:30

23.7 C

1017.3 hpa

50 %

4.8 km/h aus 116

14.5 km/h aus WNW

12.6 C

23.6 C

23.7 C

23.6 C

43 W/m

0.00 mm

19:35

23.7 C

1017.3 hpa

50 %

4.8 km/h aus 116

11.3 km/h aus WSW

12.6 C

23.6 C

23.7 C

23.6 C

40 W/m

0.00 mm

19:40

23.6 C

1017.3 hpa

50 %

8.0 km/h aus 117

16.1 km/h aus NW

12.5 C

23.5 C

23.6 C

23.5 C

40 W/m

0.00 mm

19:45

23.5 C

1017.3 hpa

50 %

4.8 km/h aus 115

11.3 km/h aus W

12.5 C

23.4 C

23.5 C

23.4 C

40 W/m

0.00 mm

19:50

23.4 C

1017.3 hpa

50 %

4.8 km/h aus 113

8.0 km/h aus W

12.4 C

23.2 C

23.4 C

23.2 C

39 W/m

0.00 mm

19:55

23.3 C

1017.3 hpa

51 %

3.2 km/h aus 117

8.0 km/h aus W

12.6 C

23.2 C

23.3 C

23.2 C

38 W/m

0.00 mm

20:00

23.3 C

1017.4 hpa

51 %

3.2 km/h aus 116

6.4 km/h aus W

12.6 C

23.2 C

23.3 C

23.2 C

35 W/m

0.00 mm

20:05

23.2 C

1017.4 hpa

51 %

4.8 km/h aus 114

8.0 km/h aus W

12.5 C

23.0 C

23.2 C

23.0 C

34 W/m

0.00 mm

20:10

23.1 C

1017.4 hpa

51 %

4.8 km/h aus 113

9.7 km/h aus W

12.4 C

22.9 C

23.1 C

22.9 C

38 W/m

0.00 mm

20:15

22.9 C

1017.4 hpa

52 %

4.8 km/h aus 117

11.3 km/h aus W

12.5 C

22.7 C

22.9 C

22.7 C

45 W/m

0.00 mm

20:20

22.8 C

1017.4 hpa

52 %

3.2 km/h aus 116

8.0 km/h aus W

12.5 C

22.7 C

22.8 C

22.7 C

41 W/m

0.00 mm

20:25

22.7 C

1017.4 hpa

52 %

6.4 km/h aus 117

14.5 km/h aus WSW

12.4 C

22.6 C

22.7 C

22.6 C

33 W/m

0.00 mm

20:30

22.6 C

1017.4 hpa

53 %

4.8 km/h aus 114

12.9 km/h aus W

12.5 C

22.4 C

22.6 C

22.4 C

31 W/m

0.00 mm

20:35

22.5 C

1017.4 hpa

53 %

6.4 km/h aus 115

16.1 km/h aus WSW

12.4 C

22.3 C

22.5 C

22.3 C

27 W/m

0.00 mm

20:40

22.4 C

1017.4 hpa

53 %

6.4 km/h aus 116

11.3 km/h aus WSW

12.3 C

22.1 C

22.4 C

22.1 C

26 W/m

0.00 mm

20:45

22.3 C

1017.4 hpa

54 %

4.8 km/h aus 117

11.3 km/h aus WSW

12.5 C

22.0 C

22.3 C

22.0 C

24 W/m

0.00 mm

20:50

22.2 C

1017.4 hpa

54 %

3.2 km/h aus 115

6.4 km/h aus W

12.5 C

21.9 C

22.2 C

21.9 C

22 W/m

0.00 mm

20:55

22.1 C

1017.4 hpa

54 %

1.6 km/h aus 115

6.4 km/h aus W

12.4 C

21.7 C

22.1 C

21.7 C

20 W/m

0.00 mm

21:00

22.0 C

1017.5 hpa

54 %

1.6 km/h aus 117

6.4 km/h aus W

12.3 C

21.6 C

22.0 C

21.6 C

19 W/m

0.00 mm

21:05

21.8 C

1017.5 hpa

55 %

1.6 km/h aus 116

6.4 km/h aus W

12.4 C

21.4 C

21.8 C

21.4 C

17 W/m

0.00 mm

21:10

21.7 C

1017.5 hpa

55 %

1.6 km/h aus 117

6.4 km/h aus WSW

12.2 C

21.1 C

21.7 C

21.1 C

14 W/m

0.00 mm

21:15

21.5 C

1017.6 hpa

55 %

3.2 km/h aus 115

8.0 km/h aus W

12.1 C

20.9 C

21.5 C

20.9 C

12 W/m

0.00 mm

21:20

21.3 C

1017.6 hpa

56 %

3.2 km/h aus 116

8.0 km/h aus SW

12.2 C

20.7 C

21.3 C

20.7 C

11 W/m

0.00 mm

21:25

21.2 C

1017.6 hpa

56 %

3.2 km/h aus 117

9.7 km/h aus WSW

12.1 C

20.6 C

21.2 C

20.6 C

9 W/m

0.00 mm

21:30

21.1 C

1017.6 hpa

57 %

3.2 km/h aus 116

8.0 km/h aus WSW

12.3 C

20.5 C

21.1 C

20.5 C

7 W/m

0.00 mm

21:35

20.9 C

1017.6 hpa

57 %

3.2 km/h aus 115

8.0 km/h aus WSW

12.1 C

20.4 C

20.9 C

20.4 C

4 W/m

0.00 mm

21:40

20.9 C

1017.6 hpa

57 %

1.6 km/h aus 115

4.8 km/h aus WSW

12.0 C

20.3 C

20.9 C

20.3 C

0 W/m

0.00 mm

21:45

20.8 C

1017.7 hpa

57 %

0.0 km/h aus 117

1.6 km/h aus WSW

12.0 C

20.3 C

20.8 C

20.3 C

0 W/m

0.00 mm

21:50

20.7 C

1017.7 hpa

57 %

0.0 km/h aus 117

1.6 km/h aus WSW

11.9 C

20.2 C

20.7 C

20.2 C

0 W/m

0.00 mm

21:55

20.6 C

1017.7 hpa

58 %

0.0 km/h aus 116

0.0 km/h aus ---

12.0 C

20.1 C

20.6 C

20.1 C

0 W/m

0.00 mm

22:00

20.4 C

1017.8 hpa

59 %

0.0 km/h aus 114

0.0 km/h aus ---

12.1 C

20.1 C

20.4 C

20.1 C

0 W/m

0.00 mm

22:05

20.2 C

1017.8 hpa

60 %

0.0 km/h aus 116

0.0 km/h aus ---

12.2 C

20.0 C

20.2 C

20.0 C

0 W/m

0.00 mm

22:10

20.0 C

1017.8 hpa

60 %

0.0 km/h aus 116

0.0 km/h aus ---

12.0 C

19.8 C

20.0 C

19.8 C

0 W/m

0.00 mm

22:15

19.7 C

1017.9 hpa

61 %

3.2 km/h aus 118

4.8 km/h aus WSW

12.0 C

19.6 C

19.7 C

19.6 C

0 W/m

0.00 mm

22:20

19.5 C

1017.9 hpa

62 %

1.6 km/h aus 115

4.8 km/h aus WSW

12.0 C

19.3 C

19.5 C

19.3 C

0 W/m

0.00 mm

22:25

19.3 C

1017.9 hpa

62 %

0.0 km/h aus 115

3.2 km/h aus WSW

11.8 C

19.1 C

19.3 C

19.1 C

0 W/m

0.00 mm

22:30

19.1 C

1017.9 hpa

63 %

0.0 km/h aus 117

0.0 km/h aus ---

11.8 C

18.9 C

19.1 C

18.9 C

0 W/m

0.00 mm

22:35

18.8 C

1017.9 hpa

64 %

0.0 km/h aus 116

0.0 km/h aus ---

11.9 C

18.7 C

18.8 C

18.7 C

0 W/m

0.00 mm

22:40

18.6 C

1017.9 hpa

64 %

0.0 km/h aus 116

0.0 km/h aus ---

11.7 C

18.4 C

18.6 C

18.4 C

0 W/m

0.00 mm

22:45

18.4 C

1017.9 hpa

65 %

0.0 km/h aus 115

0.0 km/h aus ---

11.7 C

18.2 C

18.4 C

18.2 C

0 W/m

0.00 mm

22:50

18.2 C

1017.9 hpa

66 %

0.0 km/h aus 117

0.0 km/h aus ---

11.8 C

18.1 C

18.2 C

18.1 C

0 W/m

0.00 mm

22:55

18.0 C

1017.9 hpa

66 %

0.0 km/h aus 117

0.0 km/h aus ---

11.6 C

17.8 C

18.0 C

17.8 C

0 W/m

0.00 mm

23:00

17.9 C

1017.9 hpa

67 %

0.0 km/h aus 116

0.0 km/h aus ---

11.7 C

17.7 C

17.9 C

17.7 C

0 W/m

0.00 mm

23:05

17.7 C

1017.9 hpa

67 %

0.0 km/h aus 114

0.0 km/h aus ---

11.5 C

17.5 C

17.7 C

17.5 C

0 W/m

0.00 mm

23:10

17.7 C

1017.9 hpa

68 %

0.0 km/h aus 116

3.2 km/h aus WSW

11.7 C

17.5 C

17.7 C

17.5 C

0 W/m

0.00 mm

23:15

17.5 C

1017.9 hpa

68 %

0.0 km/h aus 117

0.0 km/h aus ---

11.5 C

17.3 C

17.5 C

17.3 C

0 W/m

0.00 mm

23:20

17.3 C

1017.9 hpa

69 %

0.0 km/h aus 118

0.0 km/h aus ---

11.6 C

17.2 C

17.3 C

17.2 C

0 W/m

0.00 mm

23:25

17.2 C

1017.9 hpa

69 %

0.0 km/h aus 117

0.0 km/h aus ---

11.5 C

17.0 C

17.2 C

17.0 C

0 W/m

0.00 mm

23:30

17.1 C

1017.9 hpa

70 %

0.0 km/h aus 115

0.0 km/h aus ---

11.5 C

16.8 C

17.1 C

16.8 C

0 W/m

0.00 mm

23:35

17.0 C

1017.9 hpa

71 %

0.0 km/h aus 116

0.0 km/h aus ---

11.7 C

16.8 C

17.0 C

16.8 C

0 W/m

0.00 mm

23:40

16.8 C

1017.9 hpa

70 %

0.0 km/h aus 115

0.0 km/h aus ---

11.3 C

16.6 C

16.8 C

16.6 C

0 W/m

0.00 mm

23:45

16.8 C

1017.9 hpa

72 %

0.0 km/h aus 117

0.0 km/h aus ---

11.7 C

16.6 C

16.8 C

16.6 C

0 W/m

0.00 mm

23:50

16.7 C

1017.9 hpa

72 %

0.0 km/h aus 116

0.0 km/h aus ---

11.6 C

16.4 C

16.7 C

16.4 C

0 W/m

0.00 mm

23:55

16.6 C

1017.9 hpa

72 %

0.0 km/h aus 114

0.0 km/h aus ---

11.5 C

16.3 C

16.6 C

16.3 C

0 W/m

0.00 mm